Date String (YYYY-MM-DD hh:mm:ss) UTC,Instrument flags,absolute air pressure of the measurement (hPa),sample flow rate (lpm),inlet stack bypass flow (lpm),air temperature of the measurement (°C),ambient temperature measured by the external sensor (°C),aerosol sample conditioner tube jacket temperature (°C),OPC LED temperature (°C),internal box temperature (°C),relative humidity of the measurement (%),span deviation,mass concentration of particles derived from Lorenz-Mie calculation of OPC scattering (μg/m³),mass concentration of particles derived from Lorenz-Mie calculation of OPC scattering (μg/m³),mass concentration of particles derived from Lorenz-Mie calculation of OPC scattering (μg/m³)
DateTimeUTC,F1_M11,P_M11,Q1_M11,Q2_M11,T1_M11,T2_M11,T3_M11,T4_M11,T5_M11,U1_M11,ZSPAN_M11,X2_M11,X0_M11,X1_M11
2024-01-27 13:00:00,SystemResetWarning,0835.6,5.00,000.00,019.4,018.5,000.0,027.8,020.7,12.4,0000.0,0002.06,0002.20,0001.95
2024-01-27 13:01:00,SystemResetWarning,0835.6,5.00,000.00,019.4,018.5,000.0,027.8,020.7,12.3,0000.0,0002.13,0002.27,0002.03
2024-01-27 13:02:00,SystemResetWarning,0835.5,5.00,000.00,019.4,018.5,000.0,027.8,020.7,12.2,0000.0,0002.23,0002.40,0002.09
2024-01-27 13:03:00,SystemResetWarning,0835.6,5.00,000.00,019.4,018.5,000.0,027.8,020.7,11.9,0000.0,0002.32,0002.47,0002.16
2024-01-27 13:04:00,SystemResetWarning,0835.6,5.00,000.00,019.4,018.5,000.0,027.7,020.7,11.8,0000.0,0002.39,0002.57,0002.22
2024-01-27 13:05:00,SystemResetWarning,0835.6,5.00,000.00,019.4,018.4,000.0,027.7,020.6,11.7,0000.0,0002.47,0002.67,0002.28
2024-01-27 13:06:00,SystemResetWarning,0835.7,5.00,000.00,019.4,018.4,000.0,027.7,020.6,11.6,0000.0,0002.50,0002.70,0002.30
2024-01-27 13:07:00,SystemResetWarning,0835.6,5.00,000.00,019.4,018.4,000.0,027.7,020.6,11.4,0000.0,0002.52,0002.77,0002.31
2024-01-27 13:08:00,SystemResetWarning,0835.6,5.00,000.00,019.4,018.4,000.0,027.7,020.6,11.3,0000.0,0002.58,0003.20,0002.33
2024-01-27 13:09:00,SystemResetWarning,0835.6,5.00,000.00,019.4,018.3,000.0,027.7,020.6,11.2,0000.0,0002.61,0003.21,0002.36
2024-01-27 13:10:00,SystemResetWarning,0835.6,5.00,000.00,019.4,018.3,000.0,027.7,020.6,11.1,0000.0,0002.60,0003.21,0002.34
2024-01-27 13:11:00,SystemResetWarning,0835.7,5.00,000.00,019.3,018.3,000.0,027.7,020.6,11.1,0000.0,0002.55,0003.15,0002.31
2024-01-27 13:12:00,SystemResetWarning,0835.6,5.01,000.00,019.3,018.3,000.0,027.7,020.6,11.1,0000.0,0002.55,0003.16,0002.30
2024-01-27 13:13:00,SystemResetWarning,0835.6,5.01,000.00,019.3,018.3,000.0,027.7,020.6,11.1,0000.0,0002.54,0003.15,0002.29
2024-01-27 13:14:00,SystemResetWarning,0835.6,5.00,000.00,019.3,018.3,000.0,027.7,020.6,11.1,0000.0,0002.49,0003.06,0002.28
2024-01-27 13:15:00,SystemResetWarning,0835.6,5.00,000.00,019.3,018.3,000.0,027.7,020.6,11.1,0000.0,0002.44,0002.98,0002.26
2024-01-27 13:16:00,SystemResetWarning,0835.7,5.00,000.00,019.3,018.3,000.0,027.7,020.5,11.1,0000.0,0002.41,0002.91,0002.25
2024-01-27 13:17:00,SystemResetWarning,0835.6,5.00,000.00,019.3,018.3,000.0,027.7,020.6,11.1,0000.0,0002.39,0002.88,0002.24
2024-01-27 13:18:00,SystemResetWarning,0835.6,4.99,000.00,019.3,018.3,000.0,027.7,020.6,11.0,0000.0,0002.38,0002.87,0002.25
2024-01-27 13:19:00,SystemResetWarning,0835.6,5.00,000.00,019.3,018.3,000.0,027.7,020.6,11.0,0000.0,0002.36,0002.47,0002.26
2024-01-27 13:20:00,SystemResetWarning,0835.6,5.01,000.00,019.3,018.3,000.0,027.6,020.6,10.9,0000.0,0002.37,0002.49,0002.26
2024-01-27 13:21:00,SystemResetWarning,0835.7,5.01,000.00,019.3,018.3,000.0,027.6,020.6,10.9,0000.0,0002.40,0002.51,0002.30
2024-01-27 13:22:00,SystemResetWarning,0835.7,5.00,000.00,019.3,018.3,000.0,027.6,020.5,10.8,0000.0,0002.45,0002.55,0002.35
2024-01-27 13:23:00,SystemResetWarning,0835.8,4.99,000.00,019.3,018.3,000.0,027.6,020.5,10.7,0000.0,0002.45,0002.55,0002.36
2024-01-27 13:24:00,SystemResetWarning,0835.6,4.99,000.00,019.3,018.3,000.0,027.6,020.5,10.7,0000.0,0002.46,0002.55,0002.36
2024-01-27 13:25:00,SystemResetWarning,0835.6,5.00,000.00,019.3,018.2,000.0,027.6,020.5,10.7,0000.0,0002.43,0002.53,0002.34
2024-01-27 13:26:00,SystemResetWarning,0835.6,5.01,000.00,019.3,018.2,000.0,027.6,020.5,10.7,0000.0,0002.44,0002.56,0002.33
2024-01-27 13:27:00,SystemResetWarning,0835.7,5.01,000.00,019.3,018.2,000.0,027.6,020.5,10.8,0000.0,0002.43,0002.56,0002.31
2024-01-27 13:28:00,SystemResetWarning,0835.7,5.00,000.00,019.2,018.2,000.0,027.6,020.5,10.7,0000.0,0002.40,0002.53,0002.28
2024-01-27 13:29:00,SystemResetWarning,0835.7,4.99,000.00,019.2,018.1,000.0,027.6,020.5,10.7,0000.0,0002.34,0002.46,0002.23
2024-01-27 13:30:00,SystemResetWarning,0835.8,4.99,000.00,019.2,018.1,000.0,027.6,020.4,10.7,0000.0,0002.31,0002.46,0002.19
2024-01-27 13:31:00,SystemResetWarning,0835.8,5.00,000.00,019.2,018.1,000.0,027.6,020.4,10.7,0000.0,0002.23,0002.34,0002.13
2024-01-27 13:32:00,SystemResetWarning,0835.8,4.99,000.00,019.2,018.1,000.0,027.6,020.4,10.7,0000.0,0002.13,0002.19,0002.05
2024-01-27 13:33:00,SystemResetWarning,0835.8,5.00,000.00,019.2,018.1,000.0,027.6,020.4,10.7,0000.0,0002.06,0002.12,0001.99
2024-01-27 13:34:00,SystemResetWarning,0835.8,5.01,000.00,019.2,018.1,000.0,027.5,020.4,10.7,0000.0,0002.00,0002.45,0001.93
2024-01-27 13:35:00,SystemResetWarning,0835.8,5.01,000.00,019.2,018.1,000.0,027.5,020.4,10.7,0000.0,0001.96,0002.77,0001.87
2024-01-27 13:36:00,SystemResetWarning,0835.8,5.00,000.00,019.2,018.1,000.0,027.5,020.4,10.7,0000.0,0001.93,0002.74,0001.84
2024-01-27 13:37:00,SystemResetWarning,0835.8,5.00,000.00,019.2,018.1,000.0,027.5,020.4,10.7,0000.0,0001.88,0002.70,0001.80
2024-01-27 13:38:00,SystemResetWarning,0835.9,5.00,000.00,019.2,018.1,000.0,027.5,020.4,10.7,0000.0,0001.81,0002.61,0001.75
2024-01-27 13:39:00,SystemResetWarning,0835.8,5.00,000.00,019.2,018.2,000.0,027.5,020.4,10.7,0000.0,0001.78,0002.59,0001.72
2024-01-27 13:40:00,SystemResetWarning,0835.8,5.00,000.00,019.2,018.2,000.0,027.5,020.4,10.6,0000.0,0001.77,0002.60,0001.70
2024-01-27 13:41:00,SystemResetWarning,0835.8,5.00,000.00,019.2,018.2,000.0,027.5,020.4,10.6,0000.0,0001.74,0002.55,0001.68
2024-01-27 13:42:00,SystemResetWarning,0835.8,5.00,000.00,019.2,018.2,000.0,027.5,020.4,10.6,0000.0,0001.74,0002.56,0001.66
2024-01-27 13:43:00,SystemResetWarning,0835.8,5.00,000.00,019.2,018.2,000.0,027.5,020.4,10.7,0000.0,0001.73,0002.57,0001.65
2024-01-27 13:44:00,SystemResetWarning,0835.8,5.00,000.00,019.1,018.2,000.0,027.5,020.4,10.7,0000.0,0001.73,0002.58,0001.65
2024-01-27 13:45:00,SystemResetWarning,0835.8,5.00,000.00,019.1,018.1,000.0,027.5,020.4,10.6,0000.0,0001.74,0002.43,0001.64
2024-01-27 13:46:00,SystemResetWarning,0835.9,5.00,000.00,019.1,018.1,000.0,027.5,020.4,10.6,0000.0,0001.71,0001.83,0001.63
2024-01-27 13:47:00,SystemResetWarning,0835.9,5.00,000.00,019.1,018.1,000.0,027.5,020.4,10.7,0000.0,0001.68,0001.78,0001.61
2024-01-27 13:48:00,SystemResetWarning,0835.9,5.00,000.00,019.1,018.1,000.0,027.4,020.3,10.6,0000.0,0001.67,0001.76,0001.59
2024-01-27 13:49:00,SystemResetWarning,0835.9,5.00,000.00,019.1,018.0,000.0,027.4,020.3,10.6,0000.0,0001.67,0001.79,0001.59
2024-01-27 13:50:00,SystemResetWarning,0835.9,5.00,000.00,019.1,018.0,000.0,027.4,020.3,10.6,0000.0,0001.65,0001.77,0001.57
2024-01-27 13:51:00,SystemResetWarning,0835.9,5.00,000.00,019.1,018.0,000.0,027.4,020.3,10.6,0000.0,0001.62,0001.71,0001.55
2024-01-27 13:52:00,SystemResetWarning,0835.9,4.99,000.00,019.1,018.0,000.0,027.4,020.3,10.6,0000.0,0001.60,0001.67,0001.53
2024-01-27 13:53:00,SystemResetWarning,0835.9,5.00,000.00,019.1,018.0,000.0,027.4,020.3,10.6,0000.0,0001.60,0001.69,0001.52
2024-01-27 13:54:00,SystemResetWarning,0835.9,5.00,000.00,019.1,018.0,000.0,027.4,020.3,10.6,0000.0,0001.57,0001.66,0001.51
2024-01-27 13:55:00,SystemResetWarning,0836.0,5.00,000.00,019.1,018.0,000.0,027.4,020.3,10.6,0000.0,0001.57,0001.66,0001.50
2024-01-27 13:56:00,SystemResetWarning,0836.1,5.00,000.00,019.1,018.0,000.0,027.4,020.3,10.6,0000.0,0001.55,0001.60,0001.49
2024-01-27 13:57:00,SystemResetWarning,0836.1,5.01,000.00,019.1,018.0,000.0,027.4,020.3,10.6,0000.0,0001.54,0001.62,0001.48
2024-01-27 13:58:00,SystemResetWarning,0836.1,5.01,000.00,019.0,018.1,000.0,027.4,020.2,10.8,0000.0,0001.54,0001.64,0001.47
2024-01-27 13:59:00,SystemResetWarning,0836.1,5.00,000.00,019.0,018.1,000.0,027.4,020.2,10.9,0000.0,0001.54,0001.63,0001.47
